Location: Unspecified
(35.6961°N, 0.0000°E)
Time: 10:42:47
(UTC+00:00)

Vanguard 2 Rocket - Pass Details

Date: 25 May 2019
Orbit: 554 x 3326 km, 32.9° (Epoch: 17 June)

Event Time Altitude Azimuth Distance (km) Brightness Sun altitude
Rises 00:54:35 0° 182° (S) 6,945 - -31.8°
Reaches altitude 10° 01:03:05 10° 161° (SSE) 6,215 - -31.3°
Exits shadow 01:06:48 13° 150° (SSE) 6,016 10.7 -31.1°
Maximum altitude 01:11:40 14° 135° (SE) 5,894 10.8 -30.7°
Drops below altitude 10° 01:20:00 10° 109° (ESE) 6,088 11.1 -30.1°
Sets 01:27:52 0° 89° (E) 6,730 11.6 -29.5°
